| time (UTC) | temp F | wind direction | speed MPH | gust MPH | rain 1hr in | rain 24hr in | rain mn in | humidity % | barometer mb |
| 20260905052953 | 64 | 313 | 0.0 | 0.0 | 0.00 | 0.00 | 0.00 | 87 | 1014.1 |
| 20260905052452 | 63 | 322 | 0.0 | 0.0 | 0.00 | 0.00 | 0.00 | 87 | 1014.2 |
| 20260905051952 | 63 | 328 | 0.0 | 0.0 | 0.00 | 0.00 | 0.00 | 88 | 1014.3 |
| 20260905051447 | 64 | 319 | 0.0 | 0.0 | 0.00 | 0.00 | 0.00 | 87 | 1014.1 |
| 20260905050945 | 64 | 324 | 0.0 | 0.0 | 0.00 | 0.00 | 0.00 | 87 | 1014.2 |
| 20260905050440 | 64 | 321 | 0.0 | 0.0 | 0.00 | 0.00 | 0.00 | 88 | 1014.2 |
| 20260905045936 | 64 | 331 | 0.0 | 0.0 | 0.00 | 0.00 | 0.00 | 89 | 1014.4 |
| 20260905045425 | 64 | 312 | 0.0 | 0.0 | 0.00 | 0.00 | 0.00 | 88 | 1014.1 |
| 20260905044921 | 64 | 327 | 0.0 | 0.0 | 0.00 | 0.00 | 0.00 | 88 | 1014.3 |
| 20260905044416 | 64 | 332 | 0.0 | 0.0 | 0.00 | 0.00 | 0.00 | 89 | 1014.3 |
| 20260905043915 | 64 | 327 | 0.0 | 0.0 | 0.00 | 0.00 | 0.00 | 90 | 1014.2 |
| 20260905043409 | 64 | 334 | 0.0 | 0.0 | 0.00 | 0.00 | 0.00 | 91 | 1014.3 |
| 20260905042909 | 64 | 321 | 0.0 | 0.0 | 0.00 | 0.00 | 0.00 | 91 | 1014.3 |
| 20260905042404 | 65 | 319 | 0.0 | 0.0 | 0.00 | 0.00 | 0.00 | 88 | 1014.4 |
| 20260905041853 | 65 | 336 | 0.0 | 0.0 | 0.00 | 0.00 | 0.00 | 87 | 1014.3 |
| 20260905041350 | 65 | 313 | 0.0 | 0.0 | 0.00 | 0.00 | 0.00 | 89 | 1014.6 |
| 20260905040849 | 65 | 317 | 0.0 | 0.0 | 0.00 | 0.00 | 0.00 | 88 | 1014.5 |
| 20260905040348 | 64 | 325 | 0.0 | 0.0 | 0.00 | 0.00 | 0.00 | 89 | 1014.4 |
| 20260905035842 | 64 | 326 | 0.0 | 0.0 | 0.00 | 0.25 | 0.25 | 90 | 1014.4 |
| 20260905035338 | 64 | 323 | 0.0 | 0.0 | 0.00 | 0.25 | 0.25 | 91 | 1014.6 |
| 20260905034834 | 64 | 326 | 0.0 | 0.0 | 0.00 | 0.25 | 0.25 | 92 | 1014.6 |
| 20260905034330 | 63 | 330 | 0.0 | 0.0 | 0.00 | 0.25 | 0.25 | 93 | 1014.6 |
| 20260905033828 | 64 | 326 | 0.0 | 0.0 | 0.00 | 0.25 | 0.25 | 94 | 1014.6 |
| 20260905033324 | 64 | 326 | 0.0 | 0.0 | 0.00 | 0.25 | 0.25 | 93 | 1014.4 |
| 20260905032823 | 64 | 327 | 0.0 | 0.0 | 0.00 | 0.25 | 0.25 | 92 | 1014.4 |
| 20260905032319 | 64 | 327 | 0.0 | 0.0 | 0.00 | 0.25 | 0.25 | 92 | 1014.5 |
| 20260905031814 | 64 | 327 | 0.0 | 0.0 | 0.00 | 0.25 | 0.25 | 92 | 1014.5 |
| 20260905031310 | 64 | 327 | 0.0 | 0.0 | 0.00 | 0.25 | 0.25 | 92 | 1014.4 |
| 20260905030805 | 64 | 326 | 0.0 | 0.0 | 0.00 | 0.25 | 0.25 | 92 | 1014.3 |
| 20260905030301 | 64 | 329 | 0.0 | 0.0 | 0.00 | 0.25 | 0.25 | 92 | 1014.3 |
| 20260905025800 | 64 | 325 | 0.0 | 0.0 | 0.00 | 0.25 | 0.25 | 92 | 1014.5 |
| 20260905025255 | 65 | 325 | 0.0 | 0.0 | 0.00 | 0.25 | 0.25 | 91 | 1014.3 |
| 20260905024751 | 65 | 328 | 0.0 | 0.0 | 0.00 | 0.25 | 0.25 | 90 | 1014.4 |
| 20260905024246 | 66 | 329 | 0.0 | 0.0 | 0.00 | 0.25 | 0.25 | 89 | 1014.3 |
| 20260905023741 | 66 | 337 | 0.0 | 0.0 | 0.00 | 0.25 | 0.25 | 89 | 1014.2 |
| 20260905023236 | 66 | 351 | 0.0 | 0.0 | 0.00 | 0.25 | 0.25 | 90 | 1014.2 |
| 20260905022735 | 65 | 340 | 0.0 | 0.0 | 0.00 | 0.25 | 0.25 | 92 | 1014.4 |
| 20260905022231 | 65 | 338 | 0.0 | 0.0 | 0.00 | 0.25 | 0.25 | 93 | 1014.2 |
| 20260905021731 | 65 | 337 | 0.0 | 0.0 | 0.00 | 0.25 | 0.25 | 94 | 1014.4 |
| 20260905021225 | 65 | 331 | 0.0 | 0.0 | 0.00 | 0.25 | 0.25 | 95 | 1014.3 |
| 20260905020721 | 65 | 321 | 0.0 | 0.0 | 0.00 | 0.25 | 0.25 | 95 | 1014.0 |
| 20260905020216 | 65 | 323 | 0.0 | 0.0 | 0.00 | 0.25 | 0.25 | 95 | 1014.2 |
| 20260905015714 | 65 | 328 | 0.0 | 0.0 | 0.00 | 0.25 | 0.25 | 95 | 1014.1 |
| 20260905015209 | 66 | 327 | 0.0 | 0.0 | 0.00 | 0.25 | 0.25 | 95 | 1014.0 |
| 20260905014707 | 66 | 340 | 0.0 | 0.0 | 0.00 | 0.25 | 0.25 | 94 | 1014.3 |
| 20260905014203 | 66 | 331 | 0.0 | 0.0 | 0.00 | 0.25 | 0.25 | 94 | 1014.2 |
| 20260905013659 | 65 | 330 | 0.0 | 0.0 | 0.00 | 0.25 | 0.25 | 95 | 1014.4 |
| 20260905013155 | 65 | 331 | 0.0 | 0.0 | 0.00 | 0.25 | 0.25 | 95 | 1014.2 |
| 20260905012650 | 66 | 325 | 0.0 | 0.0 | 0.00 | 0.25 | 0.25 | 95 | 1014.4 |
| 20260905012146 | 66 | 328 | 0.0 | 0.0 | 0.00 | 0.25 | 0.25 | 95 | 1014.5 |
| 20260905011642 | 66 | 327 | 0.0 | 0.0 | 0.00 | 0.25 | 0.25 | 95 | 1014.3 |
| 20260905011138 | 66 | 327 | 0.0 | 0.0 | 0.00 | 0.25 | 0.25 | 95 | 1014.8 |
| 20260905010632 | 66 | 328 | 0.0 | 0.0 | 0.00 | 0.25 | 0.25 | 95 | 1014.2 |
| 20260905010128 | 66 | 329 | 0.0 | 0.0 | 0.00 | 0.25 | 0.25 | 95 | 1014.2 |
| 20260905005624 | 66 | 324 | 0.0 | 0.0 | 0.00 | 0.25 | 0.25 | 95 | 1014.2 |
| 20260905005120 | 66 | 328 | 0.0 | 0.0 | 0.00 | 0.25 | 0.25 | 95 | 1014.4 |
| 20260905004619 | 66 | 328 | 0.0 | 0.0 | 0.00 | 0.25 | 0.25 | 95 | 1014.4 |
| 20260905004114 | 66 | 330 | 0.0 | 0.0 | 0.00 | 0.25 | 0.25 | 95 | 1014.4 |
| 20260905003610 | 66 | 343 | 0.0 | 0.0 | 0.00 | 0.25 | 0.25 | 96 | 1014.3 |
| 20260905003106 | 66 | 329 | 0.0 | 0.0 | 0.00 | 0.25 | 0.25 | 96 | 1014.3 |
| 20260905002601 | 66 | 330 | 0.0 | 0.0 | 0.00 | 0.25 | 0.25 | 96 | 1014.2 |
| 20260905002055 | 66 | 327 | 0.0 | 0.0 | 0.00 | 0.25 | 0.25 | 96 | 1014.3 |
| 20260905001550 | 66 | 330 | 0.0 | 0.0 | 0.00 | 0.25 | 0.25 | 95 | 1014.1 |
| 20260905001044 | 66 | 333 | 0.0 | 0.0 | 0.00 | 0.25 | 0.25 | 95 | 1013.9 |
| 20260905000540 | 66 | 328 | 0.0 | 0.0 | 0.00 | 0.25 | 0.25 | 94 | 1014.0 |
| 20260905000036 | 66 | 332 | 0.0 | 0.0 | 0.00 | 0.25 | 0.25 | 94 | 1014.0 |
| 20260904235531 | 66 | 326 | 0.0 | 0.0 | 0.00 | 0.25 | 0.25 | 94 | 1014.0 |
| 20260904235031 | 67 | 326 | 0.0 | 0.0 | 0.00 | 0.25 | 0.25 | 93 | 1013.9 |
| 20260904234530 | 67 | 333 | 0.0 | 0.0 | 0.00 | 0.25 | 0.25 | 92 | 1013.9 |
| 20260904234027 | 67 | 342 | 0.0 | 0.0 | 0.00 | 0.25 | 0.25 | 91 | 1013.9 |
| 20260904233521 | 67 | 332 | 0.0 | 0.0 | 0.00 | 0.25 | 0.25 | 91 | 1013.8 |
| 20260904233018 | 67 | 331 | 0.0 | 0.0 | 0.00 | 0.25 | 0.25 | 91 | 1014.1 |
| 20260904232514 | 68 | 332 | 0.0 | 0.0 | 0.00 | 0.25 | 0.25 | 91 | 1013.9 |
| 20260904232010 | 68 | 332 | 0.0 | 0.0 | 0.00 | 0.25 | 0.25 | 91 | 1014.0 |
| 20260904231506 | 68 | 339 | 0.0 | 0.0 | 0.00 | 0.25 | 0.25 | 90 | 1013.9 |
| 20260904231000 | 68 | 335 | 0.0 | 0.0 | 0.00 | 0.25 | 0.25 | 90 | 1013.9 |
| 20260904230459 | 69 | 332 | 0.0 | 0.0 | 0.00 | 0.25 | 0.25 | 90 | 1013.9 |
| 20260904225955 | 69 | 337 | 0.0 | 0.0 | 0.00 | 0.25 | 0.25 | 88 | 1013.8 |
| 20260904225452 | 69 | 333 | 0.0 | 0.0 | 0.00 | 0.25 | 0.25 | 87 | 1013.7 |
| 20260904224946 | 69 | 331 | 0.0 | 0.0 | 0.00 | 0.25 | 0.25 | 87 | 1014.0 |
| 20260904224443 | 70 | 330 | 0.0 | 0.0 | 0.00 | 0.25 | 0.25 | 87 | 1014.0 |
| 20260904223942 | 70 | 328 | 0.0 | 0.0 | 0.00 | 0.25 | 0.25 | 86 | 1013.8 |
| 20260904223441 | 70 | 329 | 0.0 | 0.0 | 0.00 | 0.25 | 0.25 | 85 | 1013.8 |
| 20260904222937 | 72 | 330 | 0.0 | 0.0 | 0.00 | 0.25 | 0.25 | 83 | 1013.8 |
| 20260904222433 | 72 | 348 | 0.0 | 0.0 | 0.00 | 0.25 | 0.25 | 82 | 1013.7 |
| 20260904221932 | 73 | 328 | 0.0 | 0.0 | 0.00 | 0.25 | 0.25 | 79 | 1013.8 |
| 20260904221427 | 73 | 332 | 0.0 | 0.0 | 0.00 | 0.25 | 0.25 | 79 | 1013.7 |
| 20260904220923 | 74 | 332 | 0.0 | 0.0 | 0.00 | 0.25 | 0.25 | 77 | 1013.7 |
| 20260904220422 | 74 | 347 | 0.0 | 0.0 | 0.00 | 0.25 | 0.25 | 75 | 1013.6 |
| 20260904215917 | 75 | 321 | 0.0 | 0.0 | 0.00 | 0.25 | 0.25 | 75 | 1013.7 |
| 20260904215412 | 75 | 328 | 0.0 | 0.0 | 0.00 | 0.25 | 0.25 | 76 | 1013.6 |
| 20260904214908 | 76 | 327 | 2.0 | 2.0 | 0.00 | 0.25 | 0.25 | 72 | 1013.7 |
| 20260904214404 | 76 | 26 | 1.0 | 2.0 | 0.00 | 0.25 | 0.25 | 72 | 1013.9 |
| 20260904213902 | 76 | 332 | 2.0 | 2.0 | 0.00 | 0.25 | 0.25 | 71 | 1013.6 |
| 20260904213357 | 76 | 335 | 0.0 | 0.0 | 0.00 | 0.25 | 0.25 | 71 | 1013.6 |
| 20260904212853 | 77 | 328 | 1.0 | 2.0 | 0.00 | 0.25 | 0.25 | 70 | 1013.9 |
| 20260904212347 | 77 | 9 | 4.0 | 4.0 | 0.00 | 0.25 | 0.25 | 69 | 1013.5 |
| 20260904211843 | 77 | 322 | 0.0 | 0.0 | 0.00 | 0.25 | 0.25 | 69 | 1013.7 |
| 20260904211337 | 77 | 330 | 0.0 | 0.0 | 0.00 | 0.25 | 0.25 | 67 | 1013.7 |
| 20260904210832 | 77 | 320 | 0.0 | 0.0 | 0.00 | 0.25 | 0.25 | 67 | 1013.5 |
| 20260904210326 | 78 | 343 | 1.0 | 2.0 | 0.00 | 0.25 | 0.25 | 67 | 1013.8 |
| 20260904205823 | 78 | 316 | 0.0 | 0.0 | 0.00 | 0.25 | 0.25 | 70 | 1013.8 |
| 20260904205318 | 77 | 298 | 1.0 | 1.0 | 0.00 | 0.25 | 0.25 | 68 | 1014.0 |
| 20260904204815 | 77 | 296 | 0.0 | 1.0 | 0.00 | 0.25 | 0.25 | 69 | 1013.5 |
| 20260904204310 | 77 | 316 | 0.0 | 1.0 | 0.00 | 0.25 | 0.25 | 70 | 1013.9 |
| 20260904203807 | 77 | 305 | 1.0 | 2.0 | 0.00 | 0.25 | 0.25 | 67 | 1013.9 |
| 20260904203303 | 78 | 300 | 2.0 | 2.0 | 0.00 | 0.25 | 0.25 | 67 | 1014.0 |
| 20260904202758 | 78 | 293 | 2.0 | 2.0 | 0.00 | 0.25 | 0.25 | 65 | 1013.8 |
| 20260904202254 | 78 | 307 | 1.0 | 1.0 | 0.00 | 0.25 | 0.25 | 65 | 1013.8 |
| 20260904201750 | 80 | 304 | 1.0 | 1.0 | 0.00 | 0.25 | 0.25 | 63 | 1013.8 |
| 20260904201249 | 80 | 303 | 1.0 | 1.0 | 0.00 | 0.25 | 0.25 | 64 | 1014.0 |
| 20260904200744 | 80 | 307 | 1.0 | 1.0 | 0.00 | 0.25 | 0.25 | 64 | 1013.8 |
| 20260904200238 | 79 | 295 | 1.0 | 1.0 | 0.00 | 0.25 | 0.25 | 63 | 1013.9 |
| 20260904195738 | 80 | 303 | 1.0 | 2.0 | 0.00 | 0.25 | 0.25 | 61 | 1013.7 |
| 20260904195236 | 79 | 294 | 2.0 | 2.0 | 0.00 | 0.25 | 0.25 | 62 | 1014.0 |
| 20260904194732 | 79 | 308 | 1.0 | 1.0 | 0.00 | 0.25 | 0.25 | 65 | 1014.3 |
| 20260904194231 | 79 | 304 | 1.0 | 1.0 | 0.00 | 0.25 | 0.25 | 60 | 1014.1 |
| 20260904193726 | 79 | 302 | 2.0 | 2.0 | 0.00 | 0.25 | 0.25 | 60 | 1014.1 |
| 20260904193216 | 80 | 310 | 1.0 | 1.0 | 0.00 | 0.25 | 0.25 | 62 | 1013.9 |
| 20260904192711 | 79 | 323 | 1.0 | 1.0 | 0.00 | 0.25 | 0.25 | 64 | 1014.1 |
| 20260904192206 | 79 | 297 | 1.0 | 2.0 | 0.00 | 0.25 | 0.25 | 64 | 1014.0 |
| 20260904191703 | 79 | 285 | 2.0 | 2.0 | 0.00 | 0.25 | 0.25 | 62 | 1014.0 |
| 20260904191158 | 79 | 295 | 1.0 | 2.0 | 0.00 | 0.25 | 0.25 | 62 | 1014.2 |
| 20260904190654 | 78 | 294 | 0.0 | 2.0 | 0.00 | 0.25 | 0.25 | 65 | 1014.3 |
| 20260904190145 | 77 | 350 | 2.0 | 3.0 | 0.00 | 0.25 | 0.25 | 67 | 1014.2 |
| 20260904185642 | 79 | 303 | 1.0 | 1.0 | 0.00 | 0.25 | 0.25 | 64 | 1014.4 |
| 20260904185136 | 79 | 287 | 2.0 | 2.0 | 0.00 | 0.25 | 0.25 | 65 | 1014.5 |
| 20260904184634 | 80 | 317 | 0.0 | 0.0 | 0.00 | 0.25 | 0.25 | 69 | 1014.5 |
| 20260904184130 | 79 | 261 | 1.0 | 2.0 | 0.00 | 0.25 | 0.25 | 68 | 1014.6 |
| 20260904183626 | 80 | 312 | 0.0 | 0.0 | 0.00 | 0.25 | 0.25 | 66 | 1015.0 |
| 20260904183120 | 79 | 321 | 1.0 | 1.0 | 0.00 | 0.25 | 0.25 | 67 | 1014.8 |
| 20260904182615 | 79 | 302 | 1.0 | 2.0 | 0.00 | 0.25 | 0.25 | 67 | 1014.6 |
| 20260904182110 | 78 | 346 | 2.0 | 2.0 | 0.00 | 0.25 | 0.25 | 66 | 1014.9 |
| 20260904181607 | 77 | 309 | 0.0 | 0.0 | 0.00 | 0.25 | 0.25 | 70 | 1014.6 |
| 20260904181106 | 79 | 6 | 0.0 | 0.0 | 0.00 | 0.25 | 0.25 | 66 | 1014.5 |
| 20260904180601 | 78 | 344 | 2.0 | 6.0 | 0.00 | 0.25 | 0.25 | 66 | 1014.6 |
| 20260904180056 | 77 | 304 | 1.0 | 1.0 | 0.00 | 0.25 | 0.25 | 69 | 1014.3 |
| 20260904175556 | 77 | 300 | 2.0 | 2.0 | 0.00 | 0.25 | 0.25 | 67 | 1014.5 |
| 20260904175054 | 78 | 317 | 2.0 | 3.0 | 0.00 | 0.25 | 0.25 | 69 | 1014.8 |
| 20260904174549 | 78 | 314 | 0.0 | 0.0 | 0.00 | 0.25 | 0.25 | 69 | 1014.6 |
| 20260904174046 | 78 | 298 | 2.0 | 2.0 | 0.00 | 0.25 | 0.25 | 69 | 1014.6 |
| 20260904173546 | 77 | 304 | 2.0 | 2.0 | 0.00 | 0.25 | 0.25 | 69 | 1014.9 |
| 20260904173041 | 77 | 308 | 1.0 | 1.0 | 0.00 | 0.25 | 0.25 | 68 | 1014.8 |
| 20260904172537 | 77 | 320 | 2.0 | 2.0 | 0.00 | 0.25 | 0.25 | 73 | 1014.8 |
| 20260904172036 | 75 | 299 | 0.0 | 1.0 | 0.00 | 0.25 | 0.25 | 72 | 1014.4 |
| 20260904171532 | 75 | 317 | 0.0 | 0.0 | 0.00 | 0.25 | 0.25 | 75 | 1014.5 |
| 20260904171027 | 77 | 24 | 2.0 | 2.0 | 0.00 | 0.25 | 0.25 | 72 | 1014.6 |
| 20260904170522 | 77 | 61 | 2.0 | 3.0 | 0.00 | 0.25 | 0.25 | 71 | 1014.5 |
| 20260904170019 | 77 | 298 | 2.0 | 2.0 | 0.00 | 0.25 | 0.25 | 71 | 1014.8 |
| 20260904165512 | 76 | 293 | 1.0 | 1.0 | 0.00 | 0.25 | 0.25 | 74 | 1014.8 |
| 20260904165011 | 78 | 27 | 3.0 | 3.0 | 0.00 | 0.25 | 0.25 | 69 | 1014.6 |
| 20260904164506 | 77 | 307 | 2.0 | 3.0 | 0.00 | 0.25 | 0.25 | 71 | 1014.6 |
| 20260904164003 | 77 | 298 | 2.0 | 3.0 | 0.00 | 0.25 | 0.25 | 74 | 1015.0 |
| 20260904163501 | 76 | 317 | 0.0 | 0.0 | 0.00 | 0.25 | 0.25 | 73 | 1015.0 |
| 20260904162955 | 77 | 319 | 2.0 | 3.0 | 0.00 | 0.25 | 0.25 | 69 | 1015.1 |
| 20260904162451 | 76 | 284 | 1.0 | 2.0 | 0.00 | 0.25 | 0.25 | 72 | 1014.9 |
| 20260904161946 | 77 | 314 | 1.0 | 2.0 | 0.00 | 0.25 | 0.25 | 72 | 1014.9 |
| 20260904161441 | 75 | 69 | 2.0 | 3.0 | 0.00 | 0.25 | 0.25 | 81 | 1014.6 |
| 20260904160937 | 76 | 166 | 2.0 | 3.0 | 0.00 | 0.25 | 0.25 | 80 | 1015.0 |
| 20260904160431 | 76 | 332 | 2.0 | 3.0 | 0.00 | 0.25 | 0.25 | 76 | 1015.1 |
| 20260904155926 | 75 | 331 | 3.0 | 4.0 | 0.00 | 0.25 | 0.25 | 76 | 1015.0 |
| 20260904155421 | 74 | 248 | 2.0 | 2.0 | 0.00 | 0.25 | 0.25 | 80 | 1015.2 |
| 20260904154921 | 74 | 69 | 0.0 | 1.0 | 0.00 | 0.25 | 0.25 | 83 | 1014.9 |
| 20260904154420 | 75 | 324 | 1.0 | 2.0 | 0.00 | 0.25 | 0.25 | 81 | 1015.2 |
| 20260904153915 | 75 | 321 | 0.0 | 0.0 | 0.00 | 0.25 | 0.25 | 82 | 1015.3 |
| 20260904153411 | 75 | 294 | 2.0 | 2.0 | 0.00 | 0.25 | 0.25 | 82 | 1015.3 |
| 20260904152907 | 76 | 317 | 2.0 | 2.0 | 0.00 | 0.25 | 0.25 | 80 | 1015.5 |
| 20260904152402 | 75 | 10 | 3.0 | 3.0 | 0.00 | 0.25 | 0.25 | 79 | 1015.4 |
| 20260904151901 | 74 | 315 | 1.0 | 1.0 | 0.00 | 0.25 | 0.25 | 82 | 1015.6 |
| 20260904151356 | 75 | 306 | 1.0 | 2.0 | 0.00 | 0.25 | 0.25 | 81 | 1015.4 |
| 20260904150852 | 75 | 345 | 4.0 | 6.0 | 0.00 | 0.25 | 0.25 | 79 | 1015.4 |
| 20260904150347 | 75 | 323 | 1.0 | 3.0 | 0.00 | 0.25 | 0.25 | 81 | 1015.4 |
| 20260904145844 | 75 | 295 | 0.0 | 1.0 | 0.00 | 0.25 | 0.25 | 85 | 1015.4 |
| 20260904145341 | 74 | 19 | 0.0 | 1.0 | 0.00 | 0.25 | 0.25 | 86 | 1015.7 |
| 20260904144836 | 74 | 250 | 2.0 | 3.0 | 0.00 | 0.25 | 0.25 | 86 | 1015.6 |
| 20260904144332 | 74 | 105 | 2.0 | 3.0 | 0.00 | 0.25 | 0.25 | 88 | 1015.5 |
| 20260904143826 | 74 | 319 | 2.0 | 3.0 | 0.00 | 0.25 | 0.25 | 89 | 1015.4 |
| 20260904143323 | 74 | 321 | 1.0 | 1.0 | 0.00 | 0.25 | 0.25 | 91 | 1015.4 |
| 20260904142819 | 74 | 284 | 3.0 | 3.0 | 0.00 | 0.25 | 0.25 | 90 | 1015.5 |
| 20260904142315 | 74 | 316 | 0.0 | 0.0 | 0.00 | 0.25 | 0.25 | 92 | 1015.3 |
| 20260904141810 | 73 | 316 | 0.0 | 0.0 | 0.00 | 0.25 | 0.25 | 93 | 1015.5 |
| 20260904141305 | 73 | 311 | 0.0 | 0.0 | 0.00 | 0.25 | 0.25 | 94 | 1015.4 |
| 20260904140802 | 72 | 321 | 1.0 | 2.0 | 0.00 | 0.25 | 0.25 | 95 | 1015.3 |
| 20260904140256 | 71 | 318 | 0.0 | 1.0 | 0.00 | 0.25 | 0.25 | 95 | 1015.2 |
| 20260904135755 | 71 | 291 | 1.0 | 2.0 | 0.00 | 0.25 | 0.25 | 97 | 1015.3 |
| 20260904135251 | 70 | 328 | 0.0 | 1.0 | 0.00 | 0.25 | 0.25 | 99 | 1015.3 |
| 20260904134747 | 70 | 324 | 1.0 | 1.0 | 0.00 | 0.25 | 0.25 | 99 | 1015.3 |
| 20260904134246 | 70 | 320 | 0.0 | 0.0 | 0.00 | 0.25 | 0.25 | 99 | 1015.3 |
| 20260904133741 | 69 | 323 | 2.0 | 2.0 | 0.00 | 0.25 | 0.25 | 99 | 1015.3 |
| 20260904133237 | 69 | 185 | 0.0 | 1.0 | 0.00 | 0.25 | 0.25 | 99 | 1015.0 |
| 20260904132736 | 69 | 288 | 1.0 | 2.0 | 0.00 | 0.25 | 0.25 | 99 | 1015.3 |
| 20260904132232 | 69 | 329 | 1.0 | 1.0 | 0.00 | 0.25 | 0.25 | 99 | 1015.2 |
| 20260904131731 | 69 | 298 | 2.0 | 3.0 | 0.00 | 0.25 | 0.25 | 99 | 1015.1 |
| 20260904131226 | 69 | 296 | 0.0 | 0.0 | 0.00 | 0.25 | 0.25 | 99 | 1015.3 |
| 20260904130721 | 69 | 312 | 0.0 | 0.0 | 0.00 | 0.25 | 0.25 | 99 | 1015.0 |
| 20260904130220 | 69 | 314 | 0.0 | 0.0 | 0.00 | 0.25 | 0.25 | 99 | 1015.2 |
| 20260904125716 | 69 | 320 | 0.0 | 0.0 | 0.00 | 0.25 | 0.25 | 99 | 1015.3 |
| 20260904125212 | 69 | 304 | 0.0 | 0.0 | 0.00 | 0.25 | 0.25 | 99 | 1015.1 |
| 20260904124706 | 69 | 313 | 0.0 | 0.0 | 0.00 | 0.25 | 0.25 | 99 | 1015.2 |
| 20260904124202 | 69 | 312 | 0.0 | 0.0 | 0.00 | 0.25 | 0.25 | 99 | 1015.2 |
| 20260904123656 | 69 | 316 | 0.0 | 0.0 | 0.00 | 0.25 | 0.25 | 99 | 1015.3 |
| 20260904123152 | 68 | 319 | 0.0 | 0.0 | 0.00 | 0.25 | 0.25 | 99 | 1015.2 |
| 20260904122647 | 68 | 315 | 0.0 | 0.0 | 0.00 | 0.25 | 0.25 | 99 | 1015.1 |
| 20260904122142 | 68 | 312 | 0.0 | 0.0 | 0.00 | 0.25 | 0.25 | 99 | 1015.0 |
| 20260904121637 | 69 | 315 | 0.0 | 0.0 | 0.00 | 0.25 | 0.25 | 99 | 1015.1 |
| 20260904121132 | 69 | 321 | 0.0 | 0.0 | 0.00 | 0.25 | 0.25 | 99 | 1015.2 |
| 20260904120629 | 68 | 319 | 0.0 | 0.0 | 0.00 | 0.25 | 0.25 | 99 | 1015.0 |
| 20260904120125 | 68 | 319 | 0.0 | 0.0 | 0.00 | 0.25 | 0.25 | 99 | 1015.1 |
| 20260904115624 | 68 | 319 | 0.0 | 0.0 | 0.00 | 0.25 | 0.25 | 99 | 1015.1 |
| 20260904115119 | 68 | 318 | 0.0 | 0.0 | 0.00 | 0.25 | 0.25 | 99 | 1015.0 |
| 20260904114614 | 68 | 317 | 0.0 | 0.0 | 0.00 | 0.25 | 0.25 | 99 | 1015.2 |
| 20260904114109 | 68 | 324 | 0.0 | 0.0 | 0.00 | 0.25 | 0.25 | 99 | 1015.1 |
| 20260904113609 | 68 | 317 | 0.0 | 0.0 | 0.00 | 0.25 | 0.25 | 99 | 1015.0 |
| 20260904113108 | 68 | 316 | 0.0 | 0.0 | 0.00 | 0.25 | 0.25 | 99 | 1015.2 |
| 20260904112603 | 68 | 316 | 0.0 | 0.0 | 0.00 | 0.25 | 0.25 | 99 | 1015.0 |
| 20260904112100 | 67 | 320 | 0.0 | 0.0 | 0.00 | 0.25 | 0.25 | 99 | 1014.8 |
| 20260904111554 | 67 | 319 | 0.0 | 0.0 | 0.00 | 0.25 | 0.25 | 99 | 1014.9 |
| 20260904111050 | 67 | 314 | 0.0 | 0.0 | 0.00 | 0.25 | 0.25 | 99 | 1014.6 |
| 20260904110544 | 67 | 313 | 0.0 | 0.0 | 0.00 | 0.25 | 0.25 | 99 | 1014.6 |
| 20260904110040 | 67 | 313 | 0.0 | 0.0 | 0.00 | 0.25 | 0.25 | 99 | 1014.8 |
| 20260904105539 | 67 | 312 | 0.0 | 0.0 | 0.00 | 0.25 | 0.25 | 99 | 1014.8 |
| 20260904105035 | 67 | 312 | 0.0 | 0.0 | 0.00 | 0.25 | 0.25 | 99 | 1014.5 |
| 20260904104530 | 67 | 312 | 0.0 | 0.0 | 0.00 | 0.25 | 0.25 | 99 | 1014.5 |
| 20260904104026 | 67 | 313 | 0.0 | 0.0 | 0.00 | 0.25 | 0.25 | 99 | 1014.3 |
| 20260904103521 | 67 | 311 | 0.0 | 0.0 | 0.00 | 0.25 | 0.25 | 99 | 1014.5 |
| 20260904103017 | 67 | 313 | 0.0 | 0.0 | 0.00 | 0.25 | 0.25 | 99 | 1014.6 |
| 20260904102513 | 67 | 313 | 0.0 | 0.0 | 0.00 | 0.25 | 0.25 | 99 | 1014.5 |
| 20260904102008 | 67 | 312 | 0.0 | 0.0 | 0.00 | 0.25 | 0.25 | 99 | 1014.5 |
| 20260904101505 | 67 | 314 | 0.0 | 0.0 | 0.00 | 0.25 | 0.25 | 99 | 1014.5 |
| 20260904101000 | 67 | 316 | 0.0 | 0.0 | 0.00 | 0.25 | 0.25 | 99 | 1014.2 |
| 20260904100455 | 67 | 309 | 0.0 | 0.0 | 0.00 | 0.25 | 0.25 | 99 | 1014.0 |
| 20260904095955 | 66 | 313 | 0.0 | 0.0 | 0.00 | 0.25 | 0.25 | 99 | 1013.8 |
| 20260904095450 | 66 | 324 | 0.0 | 0.0 | 0.00 | 0.25 | 0.25 | 99 | 1013.9 |
| 20260904094945 | 66 | 321 | 0.0 | 0.0 | 0.00 | 0.25 | 0.25 | 99 | 1013.9 |
| 20260904094440 | 66 | 317 | 0.0 | 0.0 | 0.00 | 0.25 | 0.25 | 99 | 1014.1 |
| 20260904093936 | 66 | 325 | 0.0 | 0.0 | 0.00 | 0.25 | 0.25 | 99 | 1013.9 |
| 20260904093432 | 66 | 318 | 0.0 | 0.0 | 0.00 | 0.25 | 0.25 | 99 | 1014.1 |
| 20260904092927 | 66 | 318 | 0.0 | 0.0 | 0.00 | 0.25 | 0.25 | 99 | 1013.9 |
| 20260904092424 | 66 | 318 | 0.0 | 0.0 | 0.00 | 0.25 | 0.25 | 99 | 1013.9 |
| 20260904091919 | 66 | 313 | 0.0 | 0.0 | 0.00 | 0.25 | 0.25 | 99 | 1013.9 |
| 20260904091414 | 66 | 312 | 0.0 | 0.0 | 0.00 | 0.25 | 0.25 | 99 | 1014.0 |
| 20260904090903 | 66 | 309 | 0.0 | 0.0 | 0.00 | 0.25 | 0.25 | 99 | 1013.9 |
| 20260904090359 | 66 | 311 | 0.0 | 0.0 | 0.00 | 0.25 | 0.25 | 99 | 1013.8 |
| 20260904085854 | 66 | 313 | 0.0 | 0.0 | 0.00 | 0.25 | 0.25 | 99 | 1013.9 |
| 20260904085350 | 66 | 312 | 0.0 | 0.0 | 0.00 | 0.25 | 0.25 | 99 | 1013.9 |
| 20260904084850 | 66 | 312 | 0.0 | 0.0 | 0.00 | 0.25 | 0.25 | 99 | 1013.5 |
| 20260904084346 | 66 | 312 | 0.0 | 0.0 | 0.00 | 0.25 | 0.25 | 99 | 1013.7 |
| 20260904083841 | 66 | 312 | 0.0 | 0.0 | 0.00 | 0.25 | 0.25 | 99 | 1013.5 |
| 20260904083338 | 66 | 312 | 0.0 | 0.0 | 0.00 | 0.25 | 0.25 | 99 | 1013.3 |
| 20260904082833 | 66 | 312 | 0.0 | 0.0 | 0.00 | 0.25 | 0.25 | 99 | 1013.2 |
| 20260904082327 | 66 | 312 | 0.0 | 0.0 | 0.00 | 0.25 | 0.25 | 99 | 1013.1 |
| 20260904081823 | 66 | 307 | 0.0 | 0.0 | 0.00 | 0.25 | 0.25 | 99 | 1013.2 |
| 20260904081318 | 66 | 317 | 0.0 | 0.0 | 0.00 | 0.25 | 0.25 | 99 | 1013.2 |
| 20260904080814 | 66 | 316 | 0.0 | 0.0 | 0.00 | 0.25 | 0.25 | 99 | 1013.3 |
| 20260904080309 | 66 | 318 | 0.0 | 0.0 | 0.07 | 0.25 | 0.25 | 99 | 1012.8 |
| 20260904075800 | 67 | 325 | 0.0 | 0.0 | 0.07 | 0.25 | 0.25 | 99 | 1012.8 |
| 20260904075300 | 67 | 324 | 0.0 | 0.0 | 0.05 | 0.24 | 0.24 | 99 | 1013.3 |
| 20260904074753 | 67 | 313 | 0.0 | 0.0 | 0.12 | 0.24 | 0.24 | 99 | 1013.2 |
| 20260904074248 | 67 | 311 | 0.0 | 0.0 | 0.19 | 0.23 | 0.23 | 99 | 1013.2 |
| 20260904073743 | 67 | 312 | 0.0 | 0.0 | 0.19 | 0.22 | 0.22 | 99 | 1013.4 |
| 20260904073239 | 67 | 320 | 0.0 | 0.0 | 0.12 | 0.20 | 0.20 | 99 | 1013.5 |
| 20260904072736 | 67 | 299 | 1.0 | 2.0 | 0.12 | 0.19 | 0.19 | 99 | 1013.8 |
| 20260904072230 | 67 | 272 | 3.0 | 4.0 | 0.12 | 0.18 | 0.18 | 99 | 1014.1 |
| 20260904071726 | 69 | 243 | 6.0 | 7.0 | 0.90 | 0.17 | 0.17 | 99 | 1014.4 |
| 20260904071225 | 69 | 292 | 2.0 | 2.0 | 0.85 | 0.16 | 0.16 | 99 | 1014.8 |
| 20260904070720 | 69 | 287 | 3.0 | 3.0 | 0.12 | 0.03 | 0.03 | 99 | 1015.3 |
| 20260904070219 | 69 | 322 | 0.0 | 0.0 | 0.12 | 0.02 | 0.02 | 99 | 1014.1 |
| 20260904065714 | 69 | 326 | 0.0 | 0.0 | 0.07 | 0.01 | 0.01 | 99 | 1013.9 |
| 20260904065211 | 69 | 327 | 0.0 | 0.0 | 0.00 | 0.00 | 0.00 | 99 | 1014.0 |
| 20260904064710 | 69 | 327 | 0.0 | 0.0 | 0.00 | 0.00 | 0.00 | 99 | 1014.2 |
| 20260904064206 | 69 | 327 | 0.0 | 0.0 | 0.00 | 0.00 | 0.00 | 99 | 1014.2 |
| 20260904063703 | 69 | 327 | 0.0 | 0.0 | 0.00 | 0.00 | 0.00 | 99 | 1014.0 |
| 20260904063158 | 69 | 327 | 0.0 | 0.0 | 0.00 | 0.00 | 0.00 | 99 | 1014.1 |
| 20260904062654 | 69 | 327 | 0.0 | 0.0 | 0.00 | 0.00 | 0.00 | 99 | 1014.0 |
| 20260904062149 | 69 | 331 | 0.0 | 0.0 | 0.00 | 0.00 | 0.00 | 99 | 1013.8 |
| 20260904061645 | 70 | 339 | 0.0 | 0.0 | 0.00 | 0.00 | 0.00 | 99 | 1013.9 |
| 20260904061141 | 69 | 331 | 0.0 | 0.0 | 0.00 | 0.00 | 0.00 | 99 | 1014.1 |
| 20260904060637 | 69 | 337 | 0.0 | 0.0 | 0.00 | 0.00 | 0.00 | 99 | 1014.1 |
| 20260904060133 | 69 | 337 | 0.0 | 0.0 | 0.00 | 0.00 | 0.00 | 99 | 1014.1 |
| 20260904055633 | 69 | 337 | 0.0 | 0.0 | 0.00 | 0.00 | 0.00 | 99 | 1014.4 |
| 20260904055128 | 69 | 329 | 0.0 | 0.0 | 0.00 | 0.00 | 0.00 | 99 | 1014.3 |
| 20260904054623 | 69 | 327 | 0.0 | 0.0 | 0.00 | 0.00 | 0.00 | 99 | 1014.5 |
| 20260904054120 | 69 | 327 | 0.0 | 0.0 | 0.00 | 0.00 | 0.00 | 99 | 1014.3 |
| 20260904053614 | 69 | 327 | 0.0 | 0.0 | 0.00 | 0.00 | 0.00 | 99 | 1014.6 |